TimeCDT,TemperatureF,Dew PointF,Humidity,Sea Level PressureIn,VisibilityMPH,Wind Direction,Wind SpeedMPH,Gust SpeedMPH,PrecipitationIn,Events,Conditions,WindDirDegrees,DateUTC
12:15 AM,55.8,50.7,83,30.01,10.0,Calm,Calm,-,N/A,,Overcast,0,2013-09-09 05:15:00
12:35 AM,56.1,51.1,83,30.00,10.0,Calm,Calm,-,N/A,,Overcast,0,2013-09-09 05:35:00
12:55 AM,55.9,52.0,87,29.99,10.0,SSE,3.5,-,N/A,,Overcast,160,2013-09-09 05:55:00
1:15 AM,56.3,52.2,86,29.98,10.0,Calm,Calm,-,N/A,,Overcast,0,2013-09-09 06:15:00
1:35 AM,56.3,53.1,89,29.97,10.0,SSE,4.6,-,N/A,,Overcast,160,2013-09-09 06:35:00
1:55 AM,56.3,54.7,94,29.97,10.0,SSE,3.5,-,N/A,,Overcast,150,2013-09-09 06:55:00
2:15 AM,56.7,54.9,94,29.97,10.0,Calm,Calm,-,N/A,,Overcast,0,2013-09-09 07:15:00
2:35 AM,56.8,54.9,93,29.96,10.0,SSE,3.5,-,N/A,,Overcast,160,2013-09-09 07:35:00
2:55 AM,56.7,55.4,96,29.96,10.0,Calm,Calm,-,N/A,Rain,Rain,0,2013-09-09 07:55:00
3:15 AM,56.3,55.9,99,29.96,7.0,Calm,Calm,-,0.01,Rain,Light Rain,0,2013-09-09 08:15:00
3:35 AM,56.5,56.3,99,29.95,5.0,Calm,Calm,-,0.03,Rain,Heavy Rain,0,2013-09-09 08:35:00
3:55 AM,56.7,56.7,100,29.95,10.0,South,4.6,-,0.04,,Overcast,170,2013-09-09 08:55:00
4:15 AM,56.7,56.7,100,29.95,10.0,South,3.5,-,N/A,,Overcast,180,2013-09-09 09:15:00
4:35 AM,56.8,56.8,100,29.94,10.0,South,3.5,-,N/A,,Overcast,170,2013-09-09 09:35:00
4:55 AM,56.8,56.8,100,29.93,10.0,Calm,Calm,-,N/A,,Overcast,0,2013-09-09 09:55:00
5:15 AM,57.2,57.2,100,29.93,10.0,Calm,Calm,-,N/A,,Overcast,0,2013-09-09 10:15:00
5:35 AM,57.4,57.2,99,29.93,10.0,SSE,4.6,-,N/A,,Overcast,150,2013-09-09 10:35:00
5:55 AM,57.4,57.4,100,29.92,10.0,Calm,Calm,-,N/A,,Overcast,0,2013-09-09 10:55:00
6:15 AM,57.6,57.4,99,29.93,7.0,Calm,Calm,-,N/A,,Overcast,0,2013-09-09 11:15:00
6:35 AM,57.6,57.6,100,29.92,4.0,Calm,Calm,-,N/A,,Overcast,0,2013-09-09 11:35:00
6:55 AM,57.7,57.7,100,29.92,7.0,Calm,Calm,-,N/A,,Overcast,0,2013-09-09 11:55:00
7:15 AM,57.9,57.9,100,29.91,5.0,Calm,Calm,-,N/A,,Overcast,0,2013-09-09 12:15:00
7:35 AM,58.3,58.1,99,29.91,7.0,Calm,Calm,-,N/A,,Overcast,0,2013-09-09 12:35:00
7:55 AM,58.6,58.3,99,29.92,10.0,Calm,Calm,-,N/A,,Overcast,0,2013-09-09 12:55:00
8:15 AM,59.0,58.6,99,29.91,10.0,SSE,3.5,-,N/A,,Overcast,160,2013-09-09 13:15:00
8:35 AM,59.4,59.0,99,29.92,10.0,Calm,Calm,-,N/A,,Overcast,0,2013-09-09 13:35:00
8:55 AM,59.4,59.4,100,29.92,4.0,Calm,Calm,-,N/A,Rain,Rain,0,2013-09-09 13:55:00
9:15 AM,59.9,59.9,100,29.95,3.0,WSW,3.5,-,N/A,,Overcast,240,2013-09-09 14:15:00
9:35 AM,60.1,60.1,100,29.94,2.5,Calm,Calm,-,N/A,Rain,Light Rain,0,2013-09-09 14:35:00
9:55 AM,60.4,60.4,100,29.92,2.5,SE,3.5,-,0.01,Rain,Rain,140,2013-09-09 14:55:00
10:15 AM,60.8,60.8,100,29.90,2.5,SSE,3.5,-,0.01,Rain,Rain,150,2013-09-09 15:15:00
10:35 AM,60.8,60.8,100,29.90,2.5,Calm,Calm,-,0.01,Rain,Light Rain,0,2013-09-09 15:35:00
10:55 AM,61.2,61.2,100,29.91,3.0,SSW,3.5,-,0.01,,Overcast,200,2013-09-09 15:55:00
11:15 AM,61.7,61.7,100,29.88,2.0,SE,4.6,-,N/A,Rain,Light Rain,130,2013-09-09 16:15:00
11:35 AM,62.1,62.1,100,29.84,1.8,SSE,5.8,-,0.02,Rain,Rain,160,2013-09-09 16:35:00
11:55 AM,62.2,62.2,100,29.84,1.8,SSE,5.8,-,0.02,,Overcast,160,2013-09-09 16:55:00
12:15 PM,63.5,63.5,100,29.84,2.0,SSE,6.9,-,N/A,,Overcast,160,2013-09-09 17:15:00
12:35 PM,64.4,64.2,99,29.83,2.5,SSE,5.8,-,N/A,,Overcast,160,2013-09-09 17:35:00
12:55 PM,64.8,64.8,100,29.83,2.5,SSE,8.1,-,N/A,,Overcast,160,2013-09-09 17:55:00
1:15 PM,65.3,65.1,99,29.82,3.0,SSE,6.9,-,N/A,,Overcast,150,2013-09-09 18:15:00
1:35 PM,66.4,65.8,98,29.81,4.0,South,9.2,-,N/A,,Overcast,170,2013-09-09 18:35:00
1:55 PM,67.5,66.6,97,29.80,4.0,SSE,8.1,-,N/A,,Overcast,160,2013-09-09 18:55:00
2:15 PM,68.7,67.3,95,29.80,5.0,SSE,5.8,-,N/A,,Overcast,160,2013-09-09 19:15:00
2:35 PM,70.2,67.8,92,29.79,5.0,SSE,5.8,-,N/A,,Overcast,160,2013-09-09 19:35:00
2:55 PM,71.1,68.2,91,29.78,7.0,SE,6.9,-,N/A,,Overcast,130,2013-09-09 19:55:00
3:15 PM,73.2,68.4,85,29.76,7.0,South,9.2,-,N/A,,Overcast,170,2013-09-09 20:15:00
3:35 PM,76.3,68.5,77,29.74,7.0,South,9.2,18.4,N/A,,Overcast,170,2013-09-09 20:35:00
3:55 PM,76.3,68.5,77,29.73,10.0,SSE,8.1,16.1,N/A,,Overcast,150,2013-09-09 20:55:00
4:15 PM,75.7,69.4,81,29.74,10.0,SSE,6.9,-,N/A,,Overcast,160,2013-09-09 21:15:00
4:35 PM,76.1,69.8,81,29.73,10.0,SSE,6.9,-,N/A,,Overcast,160,2013-09-09 21:35:00
4:55 PM,76.1,70.0,81,29.73,10.0,South,4.6,-,N/A,,Overcast,170,2013-09-09 21:55:00
5:15 PM,76.1,70.7,83,29.73,10.0,South,5.8,-,N/A,,Overcast,170,2013-09-09 22:15:00
5:35 PM,75.7,70.2,83,29.72,10.0,South,6.9,-,N/A,,Overcast,170,2013-09-09 22:35:00
5:55 PM,75.2,70.9,86,29.71,7.0,SSE,9.2,-,N/A,,Overcast,160,2013-09-09 22:55:00
6:15 PM,74.8,70.9,87,29.71,7.0,South,4.6,-,N/A,,Mostly Cloudy,170,2013-09-09 23:15:00
6:35 PM,74.7,71.2,89,29.72,7.0,SSE,3.5,-,N/A,,Scattered Clouds,150,2013-09-09 23:35:00
6:55 PM,73.9,71.2,91,29.72,7.0,SSE,4.6,-,N/A,,Clear,160,2013-09-09 23:55:00
7:15 PM,73.0,71.2,94,29.71,5.0,SSE,3.5,-,N/A,,Clear,150,2013-09-10 00:15:00
7:35 PM,72.7,71.2,95,29.72,5.0,Calm,Calm,-,N/A,,Clear,0,2013-09-10 00:35:00
7:55 PM,72.1,71.2,97,29.73,5.0,Calm,Calm,-,N/A,,Clear,0,2013-09-10 00:55:00
8:15 PM,70.5,69.6,97,29.73,4.0,Calm,Calm,-,N/A,,Clear,0,2013-09-10 01:15:00
8:35 PM,69.1,69.1,100,29.74,2.0,Calm,Calm,-,N/A,,Clear,0,2013-09-10 01:35:00
8:55 PM,69.3,69.3,100,29.74,0.5,Calm,Calm,-,N/A,Fog,Fog,0,2013-09-10 01:55:00
9:15 PM,68.4,68.4,100,29.73,0.2,Calm,Calm,-,N/A,Fog,Fog,0,2013-09-10 02:15:00
9:35 PM,66.4,66.4,100,29.73,0.5,Calm,Calm,-,N/A,Fog,Fog,0,2013-09-10 02:35:00
9:55 PM,67.3,67.3,100,29.73,1.0,Calm,Calm,-,N/A,,Mostly Cloudy,0,2013-09-10 02:55:00
10:15 PM,66.7,66.7,100,29.72,2.0,Calm,Calm,-,N/A,,Overcast,0,2013-09-10 03:15:00
10:35 PM,67.1,67.1,100,29.72,2.5,Calm,Calm,-,N/A,,Overcast,0,2013-09-10 03:35:00
10:55 PM,66.4,66.4,100,29.73,0.2,Calm,Calm,-,N/A,Fog,Fog,0,2013-09-10 03:55:00
11:15 PM,68.9,68.9,100,29.72,2.0,Calm,Calm,-,N/A,,Mostly Cloudy,0,2013-09-10 04:15:00
11:35 PM,68.2,68.2,100,29.74,2.0,Calm,Calm,-,N/A,,Scattered Clouds,0,2013-09-10 04:35:00
11:55 PM,68.9,68.9,100,29.74,2.0,WNW,4.6,-,N/A,,Mostly Cloudy,300,2013-09-10 04:55:00